Faulconbridge Real Estate, NSW, 2776 Blue Mountains

Thinking about buying in Faulconbridge? Now could not be a better time, with a whopping 1907 properties either residential or commercial there's certainly plenty to choose from.

The average property price for this area is $830,000 with prices in this suburb ranging from $308,000 to $3,024,000.

Distance to the coast is 58 Km.

Faulconbridge Real Estate Market Outlook

Good balance between supply and demand ensures a range of affordable options within budget limits. Recent increases in listings may provide buying opportunities. In this area of average incomes, there is a mix of housing size and quality. While this may present buying opportunities, growth may be constrained. As buyers begin to examine Faulconbridge due to other areas being out of the price range and the trend to working from home, "gentrification" may incease price growth. The high percentage of professional people in Faulconbridge classifies the area as "gentrified". This implies high demand for quality housing, generally of larger than average size. Price growth is ensured even where the state affordability index is negatively impacting other areas. Medium density in Faulconbridge necessitates a mix of lifestyle options for housing, shops, open areas, and facilties. Where this is available, demand is high and growth ensured. Higher than average industry presence in the wider area offering local employment yet with not a large negative impact on local amenity, provides good demand and price growth.

About

For Sale

Century21 4 BADHAM ST, FAULCONBRIDGE, NSW, 2776 Under Contract
One Agency 15 ADELINE ST, FAULCONBRIDGE, NSW, 2776 3 1 1 $840,000 - $890,000
One Agency 49 CHAPMAN PDE, FAULCONBRIDGE, NSW, 2776 3 1 1 $740,000 - $790,000

More

Local Schools


Faulconbridge Public School

(While the above schools are located with the suburb of Faulconbridge there may also be nearby schools whose catchments cover this suburb)

Local Crime Stats


Average Local Climate by month


(mm)
RAIN
Min (°C)
TEMP
Max (°C)
TEMP
Min (%)
HUMIDITY
Max (%)
HUMIDITY
(m/sec)
WIND
(MJ/sq m)
SOLAR
Jan2.518.631.642.294.32.922.2
Feb3.518.029.746.295.12.718.8
Mar4.615.92749.996.02.415.5
Apr2.212.224.647.496.72.014.0
May1.17.221.146.996.71.711.4
Jun2.35.818.054.2971.99.2
Jul0.63.718.643.994.72.210.7
Aug1.14.320.037.892.82.613.2
Sept1.17.623.234.593.22.917.3
Oct1.511.625.338.794.12.819.7
Nov2.314.828.239.994.12.922.6
Dec2.616.629.839.994.3323.7

source: Australian Government Bureau of Meteorology

Recently Sold

05-05-2022 $845,000 17 GARDEN SQ FAULCONBRIDGE 2776
04-05-2022 $940,000 53 CHAPMAN PDE FAULCONBRIDGE 2776
28-04-2022 $1,420,000 4 PATRICK O POSSUM PL FAULCONBRIDGE 2776
28-04-2022 $1,205,000 35 MARTIN PL FAULCONBRIDGE 2776
28-04-2022 $1,190,000 37 GAZANIA ST FAULCONBRIDGE 2776
20-04-2022 $780,000 19 COOMASSIE AVE FAULCONBRIDGE 2776
07-04-2022 $1,181,186 109 CHAPMAN PDE FAULCONBRIDGE 2776
07-04-2022 $1,710,000 35 SUMMER RD FAULCONBRIDGE 2776
07-04-2022 $1,710,000 35 SUMMER RD FAULCONBRIDGE 2776
07-04-2022 $1,710,000 35 SUMMER RD FAULCONBRIDGE 2776
07-04-2022 $906,500 25 SHIRLOW AVE FAULCONBRIDGE 2776
04-04-2022 $720,000 81 ST GEORGES CRES FAULCONBRIDGE 2776
01-04-2022 $722,333 4 DOUGLAS ST FAULCONBRIDGE 2776
28-03-2022 $831,000 38 HIGHLAND RD FAULCONBRIDGE 2776
25-03-2022 $650,000 514 GREAT WESTERN HWY FAULCONBRIDGE 2776
21-03-2022 $750,000 699 GREAT WESTERN HWY FAULCONBRIDGE 2776
10-03-2022 $875,300 14 MURIEL ST FAULCONBRIDGE 2776
07-03-2022 $600,000 32 MARTIN PL FAULCONBRIDGE 2776
28-02-2022 $865,000 17 COOMASSIE AVE FAULCONBRIDGE 2776
25-02-2022 $900,000 37 CHAPMAN PDE FAULCONBRIDGE 2776
24-02-2022 $1,510,150 139 GROSE RD FAULCONBRIDGE 2776
11-02-2022 $922,500 37 UNCLE WATTLEBERRY CRES FAULCONBRIDGE 2776
01-02-2022 $872,278 3 HIGH VIEW AVE FAULCONBRIDGE 2776
28-01-2022 $1,390,000 75 CHAPMAN PDE FAULCONBRIDGE 2776
28-01-2022 $880,000 2 CLARINDA AVE FAULCONBRIDGE 2776
27-01-2022 $710,000 12 PARKES CRES FAULCONBRIDGE 2776
24-01-2022 $1,100,000 31 STATHAM AVE FAULCONBRIDGE 2776
24-01-2022 $740,000 30 MARTIN PL FAULCONBRIDGE 2776
21-01-2022 $871,634 27 DOUGLAS ST FAULCONBRIDGE 2776
21-01-2022 $810,000 32 CHAPMAN PDE FAULCONBRIDGE 2776
18-01-2022 $903,000 55 MOORE CRES FAULCONBRIDGE 2776
18-01-2022 $730,000 476 GREAT WESTERN HWY FAULCONBRIDGE 2776
17-01-2022 $1,900,000 6 BADHAM ST FAULCONBRIDGE 2776
17-01-2022 $1,800,000 9 BADHAM ST FAULCONBRIDGE 2776
14-01-2022 $690,000 31 BELLEVUE RD FAULCONBRIDGE 2776
13-01-2022 $840,000 78 ST GEORGES CRES FAULCONBRIDGE 2776
13-01-2022 $1,035,548 39 UNCLE WATTLEBERRY CRES FAULCONBRIDGE 2776
13-01-2022 $1,280,000 6 BOTTLEBRUSH DR FAULCONBRIDGE 2776
21-12-2021 $1,200,000 24 SUMMER RD FAULCONBRIDGE 2776
20-12-2021 $550,000 47 RAILWAY AVE FAULCONBRIDGE 2776
16-12-2021 $800,000 28 MEEKS CRES FAULCONBRIDGE 2776
02-12-2021 $780,000 33 CHAPMAN PDE FAULCONBRIDGE 2776
30-11-2021 $805,000 603 GREAT WESTERN HWY FAULCONBRIDGE 2776
26-11-2021 $640,000 12 SHIRLOW AVE FAULCONBRIDGE 2776
26-11-2021 $815,000 1 CHAPMAN PDE FAULCONBRIDGE 2776
25-11-2021 $1,033,000 11 RAILWAY AVE FAULCONBRIDGE 2776
23-11-2021 $1,175,000 22 SUMMER RD FAULCONBRIDGE 2776
05-11-2021 $901,700 33 HIGHLAND RD FAULCONBRIDGE 2776
26-10-2021 $1,160,000 40 SUMMER RD FAULCONBRIDGE 2776
25-10-2021 $925,000 42 SHIRLOW AVE FAULCONBRIDGE 2776

Residz covers 12m+ Australian properties and brings together a wealth of data to give you a better understanding of an area. From crime and schools to bush fire, flood risk and more. Begin your search for properties for sale or learn more about where you currently reside. Residz is an exciting next-generation Real Estate platform getting better by the day!